< < Back
Terminal Aerodrome Forecast


Current Version              Previous Versions:   1  2  3  4  5  6  7  8  9  

Terminal Aerodrome Forecast

887
FTUS44 KBMX 251132
TAFTCL
TAF
KTCL 251132Z 2512/2612 12003KT P6SM SKC
     FM251900 15006KT P6SM VCTS SCT050CB SCT250
     FM260100 13003KT P6SM SCT250=

Latest METAR

442
SAUS70 KWBC 261600
MTRTCL
METAR KTCL 261553Z 16007KT 10SM FEW034 31/23 A3003 RMK AO2 SLP167
T03060228


USA.gov is the U.S. government's official web portal to all federal, state and local government web resources and services.